Whiteman AFB, MO

8:06 AM CST on November 20, 2019 (GMT -0600)
Whiteman Air Force Base

Weather History for KSZL - May, 2019

Change the Weather History Date:

Thursday, May 30, 2019

  Actual Average Record
Temperature  
Mean Temperature 67 °F -  
Max Temperature 77 °F 75 °F 93 °F (1998)
Min Temperature 57 °F 56 °F 50 °F (2017)
Cooling Degree Days 2    
Growing Degree Days 17 (Base 50)    
Moisture  
Dew Point 56 °F    
Average Humidity 73    
Maximum Humidity 100    
Minimum Humidity 43    
Precipitation  
Precipitation 0.00 in - - ()
Sea Level Pressure  
Sea Level Pressure 29.80 in    
Wind  
Wind Speed 8 mph (WSW)    
Max Wind Speed 18 mph    
Max Gust Speed 23 mph    
Visibility 10 miles    
Events      
Averages and records for this station are not official NWS values.
T = Trace of Precipitation, MM = Missing Value Source: NWS Daily Summary

Daily Weather History Graph

Daily Weather History Graph

Search for Another Location

Airport or City:

Astronomy

May. 30, 2019 Rise Set
Actual Time 5:52 AM CDT 8:31 PM CDT
Civil Twilight 5:21 AM CDT 9:02 PM CDT
Nautical Twilight 4:42 AM CDT 9:41 PM CDT
Astronomical Twilight 3:58 AM CDT 10:25 PM CDT
Moon 3:54 AM CDT (5/30) 4:43 PM CDT (5/30)
Length of Visible Light 15h 41m
Length of Day
14h 39m
Waning Crescent, 15% of the Moon is Illuminated
May 30
Waning Crescent
Jun 3
New
Jun 10
First Quarter
Jun 17
Full
Jun 25
Last Quarter

Hourly Weather History & Observations

Time (CDT) Temp. Dew Point Humidity Pressure Visibility Wind Dir Wind Speed Gust Speed Precip Events Conditions
12:56 AM 62.4 °F 62.4 °F 100% 29.77 in 10.0 mi WSW 8.1 mph - N/A   Clear
1:56 AM 61.0 °F 61.0 °F 100% 29.78 in 10.0 mi WSW 5.8 mph - N/A   Clear
2:56 AM 60.8 °F 60.8 °F 100% 29.78 in 10.0 mi WSW 6.9 mph - N/A   Clear
3:56 AM 60.1 °F 60.1 °F 100% 29.78 in 10.0 mi WSW 5.8 mph - N/A   Clear
4:56 AM 58.1 °F 58.1 °F 100% 29.78 in 10.0 mi WSW 4.6 mph - N/A   Partly Cloudy
5:56 AM 57.6 °F 57.6 °F 100% 29.79 in 10.0 mi WSW 5.8 mph - N/A   Partly Cloudy
6:56 AM 57.9 °F 57.9 °F 100% 29.80 in 10.0 mi WSW 8.1 mph - N/A   Clear
7:56 AM 60.3 °F 58.8 °F 95% 29.80 in 10.0 mi West 10.4 mph - N/A   Clear
8:56 AM 63.1 °F 57.6 °F 82% 29.81 in 10.0 mi West 8.1 mph - N/A   Partly Cloudy
9:56 AM 66.4 °F 55.4 °F 68% 29.82 in 10.0 mi West 11.5 mph - N/A   Partly Cloudy
10:56 AM 68.5 °F 54.1 °F 60% 29.83 in 10.0 mi West 13.8 mph - N/A   Partly Cloudy
11:56 AM 71.8 °F 53.2 °F 52% 29.82 in 10.0 mi WSW 15.0 mph - N/A   Partly Cloudy
12:56 PM 73.0 °F 52.2 °F 48% 29.82 in 10.0 mi WSW 16.1 mph - N/A   Scattered Clouds
1:56 PM 75.6 °F 53.2 °F 46% 29.81 in 10.0 mi WSW 18.4 mph 23.0 mph N/A   Scattered Clouds
2:56 PM 74.8 °F 52.7 °F 46% 29.81 in 10.0 mi WSW 12.7 mph - N/A   Mostly Cloudy
3:56 PM 76.1 °F 52.5 °F 44% 29.81 in 10.0 mi WSW 12.7 mph - N/A   Mostly Cloudy
4:56 PM 77.2 °F 52.9 °F 43% 29.81 in 10.0 mi West 9.2 mph - N/A   Scattered Clouds
5:56 PM 76.6 °F 53.1 °F 44% 29.79 in 10.0 mi WSW 9.2 mph - N/A   Scattered Clouds
6:56 PM 75.6 °F 54.0 °F 47% 29.79 in 10.0 mi WSW 6.9 mph - N/A   Mostly Cloudy
7:56 PM 72.7 °F 55.0 °F 54% 29.79 in 10.0 mi WSW 5.8 mph - N/A   Mostly Cloudy
9:56 PM 64.2 °F 57.9 °F 80% 29.82 in 10.0 mi Calm Calm - N/A   Partly Cloudy
10:56 PM 64.6 °F 56.8 °F 76% 29.84 in 10.0 mi SW 3.5 mph - N/A   Clear
11:56 PM 60.4 °F 58.1 °F 92% 29.84 in 10.0 mi SW 3.5 mph - N/A   Clear